KM5R Weather Reports


time (UTC)temp
C
wind
direction
speed
KPH
gust
KPH
rain 1hr
cm
rain 24hr
cm
rain mn
cm
humidity
%
barometer
mb
20260506175952 12 285 8.0 9.7 0.00 0.15 0.15 85 1015.9
20260506175449 12 305 17.7 22.5 0.00 0.15 0.15 85 1016.0
20260506174946 12 270 16.1 17.7 0.00 0.15 0.15 85 1016.3
20260506174444 12 314 12.9 14.5 0.00 0.15 0.15 85 1016.0
20260506173940 11 355 12.9 14.5 0.00 0.15 0.15 86 1016.2
20260506173438 11 344 9.7 14.5 0.00 0.15 0.15 86 1015.9
20260506172934 11 298 9.7 11.3 0.00 0.15 0.15 86 1016.2
20260506172432 11 305 17.7 27.4 0.00 0.15 0.15 86 1016.1
20260506171928 11 310 12.9 16.1 0.00 0.15 0.15 87 1016.0
20260506171426 11 305 17.7 22.5 0.00 0.15 0.15 87 1015.9
20260506170924 11 4 3.2 3.2 0.00 0.15 0.15 87 1015.8
20260506170420 11 315 12.9 16.1 0.00 0.15 0.15 87 1016.0
20260506165919 11 274 8.0 9.7 0.00 0.15 0.15 87 1016.1
20260506165416 11 270 12.9 14.5 0.00 0.15 0.15 87 1016.2
20260506164912 11 356 11.3 16.1 0.00 0.15 0.15 87 1015.9
20260506164409 11 322 6.4 9.7 0.00 0.15 0.15 87 1016.0
20260506163908 11 339 9.7 12.9 0.00 0.15 0.15 87 1015.9
20260506163401 11 304 9.7 11.3 0.00 0.15 0.15 87 1016.1
20260506162856 11 339 6.4 9.7 0.00 0.15 0.15 87 1016.1
20260506162355 11 305 9.7 11.3 0.00 0.15 0.15 87 1016.0
20260506161852 11 314 12.9 17.7 0.00 0.15 0.15 87 1014.6
20260506161349 11 345 11.3 14.5 0.00 0.15 0.15 87 1014.9
20260506160847 11 334 8.0 16.1 0.00 0.15 0.15 87 1014.3
20260506160344 11 344 16.1 25.7 0.00 0.15 0.15 87 1014.3
20260506155842 11 331 12.9 20.9 0.00 0.15 0.15 87 1014.6
20260506155338 11 9 9.7 12.9 0.00 0.15 0.15 87 1014.6
20260506153450 11 304 11.3 12.9 0.30 0.13 0.13 86 1015.1
20260506152948 11 51 8.0 12.9 0.30 0.10 0.10 86 1014.9
20260506152444 11 76 8.0 11.3 0.30 0.08 0.08 86 1014.7
20260506151943 11 80 4.8 9.7 0.30 0.05 0.05 85 1014.8
20260506151440 11 40 4.8 8.0 0.18 0.03 0.03 85 1014.8
20260506150938 11 14 6.4 8.0 0.00 0.00 0.00 85 1015.3
20260506150433 11 358 9.7 12.9 0.00 0.00 0.00 84 1015.5
20260506145931 11 263 8.0 11.3 0.00 0.00 0.00 84 1016.0
20260506145427 11 335 16.1 20.9 0.00 0.00 0.00 84 1015.6
20260506144925 11 327 16.1 20.9 0.00 0.00 0.00 84 1015.7
20260506144421 11 288 14.5 17.7 0.00 0.00 0.00 83 1016.0
20260506143919 11 277 9.7 11.3 0.00 0.00 0.00 83 1016.8
20260506143416 11 22 11.3 12.9 0.00 0.00 0.00 83 1015.6
20260506142914 11 291 16.1 24.1 0.00 0.00 0.00 83 1016.3
20260506142412 11 324 20.9 27.4 0.00 0.00 0.00 82 1015.6
20260506141910 12 258 8.0 11.3 0.00 0.00 0.00 82 1015.9
20260506141408 12 326 29.0 38.6 0.00 0.00 0.00 81 1016.0
20260506140906 12 309 17.7 27.4 0.00 0.00 0.00 81 1016.4
20260506140402 12 260 12.9 17.7 0.00 0.00 0.00 81 1016.2
20260506135859 12 354 17.7 24.1 0.00 0.00 0.00 81 1016.1
20260506135356 12 307 14.5 20.9 0.00 0.00 0.00 81 1015.8
20260506134852 12 302 8.0 9.7 0.00 0.00 0.00 82 1015.4
20260506134349 13 331 14.5 17.7 0.00 0.00 0.00 82 1015.1
20260506133846 13 278 11.3 14.5 0.00 0.00 0.00 82 1014.6
20260506133342 13 306 17.7 22.5 0.00 0.00 0.00 82 1014.4
20260506132839 13 355 11.3 16.1 0.00 0.00 0.00 82 1014.4
20260506132336 13 11 8.0 11.3 0.00 0.00 0.00 82 1014.2
20260506131834 13 327 12.9 17.7 0.00 0.00 0.00 82 1014.0
20260506131330 13 312 11.3 16.1 0.00 0.00 0.00 82 1014.0
20260506130828 13 335 6.4 16.1 0.00 0.00 0.00 82 1014.0
20260506130324 13 319 4.8 4.8 0.00 0.00 0.00 82 1013.8
20260506125822 13 319 14.5 22.5 0.00 0.00 0.00 82 1013.8
20260506125320 13 352 16.1 20.9 0.00 0.00 0.00 82 1013.8
20260506124818 14 9 16.1 22.5 0.00 0.00 0.00 81 1013.7
20260506124315 14 304 11.3 16.1 0.00 0.00 0.00 81 1013.4
20260506123812 14 339 14.5 16.1 0.00 0.00 0.00 80 1013.2
20260506123311 14 339 12.9 16.1 0.00 0.00 0.00 80 1013.1
20260506122807 14 315 14.5 20.9 0.00 0.00 0.00 80 1013.3
20260506122306 14 323 14.5 16.1 0.00 0.00 0.00 80 1013.3
20260506121803 15 344 14.5 16.1 0.00 0.00 0.00 80 1013.3
20260506121259 15 298 9.7 11.3 0.00 0.00 0.00 80 1013.0
20260506120756 15 313 8.0 12.9 0.00 0.00 0.00 79 1013.1
20260506120254 15 5 16.1 20.9 0.00 0.00 0.00 79 1012.9
20260506115752 15 344 8.0 9.7 0.00 0.00 0.00 79 1012.8
20260506115250 15 337 9.7 11.3 0.00 0.00 0.00 79 1012.9
20260506114747 15 291 12.9 16.1 0.00 0.00 0.00 79 1012.8
20260506114245 15 328 14.5 17.7 0.00 0.00 0.00 79 1012.8
20260506113743 15 5 4.8 4.8 0.00 0.00 0.00 79 1012.7
20260506113240 15 285 12.9 14.5 0.00 0.00 0.00 79 1013.0
20260506112736 15 278 8.0 9.7 0.00 0.00 0.00 79 1012.9
20260506112234 15 300 4.8 4.8 0.00 0.00 0.00 79 1012.7
20260506111731 15 343 11.3 11.3 0.00 0.00 0.00 79 1012.7
20260506111230 15 337 3.2 3.2 0.00 0.00 0.00 79 1012.6
20260506110726 15 356 4.8 9.7 0.00 0.00 0.00 79 1012.5
20260506110224 15 17 1.6 1.6 0.00 0.00 0.00 79 1012.7
20260506105720 15 345 4.8 8.0 0.00 0.00 0.00 79 1012.2
20260506105217 15 322 11.3 14.5 0.00 0.00 0.00 78 1012.3
20260506104715 16 300 6.4 9.7 0.00 0.00 0.00 78 1012.2
20260506104212 16 289 9.7 12.9 0.00 0.00 0.00 78 1012.0
20260506103709 16 3 8.0 9.7 0.00 0.00 0.00 78 1012.2
20260506103206 16 280 9.7 11.3 0.00 0.00 0.00 78 1012.0
20260506102704 16 8 12.9 14.5 0.00 0.00 0.00 78 1012.1
20260506102202 16 337 4.8 8.0 0.00 0.00 0.00 78 1011.9
20260506101659 16 291 11.3 12.9 0.00 0.00 0.00 78 1012.0
20260506101155 16 332 9.7 11.3 0.00 0.00 0.00 78 1011.7
20260506100653 16 300 14.5 20.9 0.00 0.00 0.00 78 1011.8
20260506100151 16 299 9.7 12.9 0.00 0.00 0.00 78 1011.8
20260506095650 16 282 8.0 11.3 0.00 0.00 0.00 78 1011.6
20260506095146 16 301 8.0 12.9 0.00 0.00 0.00 78 1011.6
20260506094643 16 13 3.2 4.8 0.00 0.00 0.00 78 1011.3
20260506094141 16 311 14.5 20.9 0.00 0.00 0.00 78 1011.4
20260506093639 16 289 8.0 9.7 0.00 0.00 0.00 78 1011.3
20260506093136 16 300 11.3 12.9 0.00 0.00 0.00 78 1011.5
20260506092634 17 304 11.3 12.9 0.00 0.00 0.00 78 1011.4
20260506092131 17 273 8.0 9.7 0.00 0.00 0.00 78 1011.1
20260506091629 17 321 9.7 12.9 0.00 0.00 0.00 78 1011.2
20260506091126 17 277 12.9 16.1 0.00 0.00 0.00 78 1011.1
20260506090624 17 304 4.8 4.8 0.00 0.00 0.00 77 1011.2
20260506090120 17 296 16.1 17.7 0.00 0.00 0.00 78 1011.3
20260506085617 17 286 9.7 11.3 0.00 0.00 0.00 78 1011.4
20260506085113 17 9 1.6 3.2 0.00 0.00 0.00 77 1011.2
20260506084610 17 310 11.3 14.5 0.00 0.00 0.00 77 1011.1
20260506084107 17 268 8.0 9.7 0.00 0.00 0.00 77 1011.1
20260506083604 18 299 14.5 14.5 0.00 0.00 0.00 77 1010.9
20260506083101 18 300 11.3 14.5 0.00 0.00 0.00 77 1011.1
20260506082558 18 323 11.3 12.9 0.00 0.00 0.00 77 1011.0
20260506082053 18 329 9.7 11.3 0.00 0.00 0.00 77 1011.1
20260506081552 18 300 11.3 12.9 0.00 0.00 0.00 77 1011.0
20260506081049 18 313 11.3 11.3 0.00 0.00 0.00 77 1010.8
20260506080547 18 355 4.8 8.0 0.00 0.00 0.00 77 1010.7
20260506073027 18 355 4.8 4.8 0.00 0.00 0.00 77 1010.8
20260506072524 18 298 4.8 4.8 0.00 0.00 0.00 77 1010.7
20260506072022 18 323 6.4 8.0 0.00 0.00 0.00 78 1010.8
20260506071520 18 306 4.8 8.0 0.00 0.00 0.00 78 1010.8
20260506071016 18 349 3.2 4.8 0.00 0.00 0.00 78 1011.0
20260506070514 18 310 3.2 4.8 0.00 0.00 0.00 77 1010.7
20260506062451 19 340 6.4 8.0 0.00 0.00 0.00 77 1011.0
20260506061947 19 303 3.2 4.8 0.00 0.00 0.00 77 1010.8
20260506061444 19 353 1.6 3.2 0.00 0.00 0.00 77 1010.7
20260506060942 19 337 3.2 3.2 0.00 0.00 0.00 76 1010.8
20260506060440 19 337 3.2 4.8 0.00 0.00 0.00 76 1010.7
20260506051412 21 315 4.8 4.8 0.00 0.00 0.00 73 1010.8
20260506050908 21 299 4.8 4.8 0.00 0.00 0.00 72 1010.8
20260506050406 21 284 6.4 9.7 0.00 0.00 0.00 72 1010.8
20260506044856 22 290 9.7 12.9 0.00 0.00 0.00 73 1010.8
20260506044354 22 302 9.7 11.3 0.00 0.00 0.00 73 1010.8
20260506043851 22 323 11.3 14.5 0.00 0.00 0.00 75 1010.8
20260506043348 24 339 1.6 3.2 0.00 0.00 0.00 79 1010.8
20260506042847 24 345 1.6 1.6 0.00 0.00 0.00 79 1010.5
20260506042345 24 287 3.2 3.2 0.00 0.00 0.00 79 1010.7
20260506041844 24 295 3.2 3.2 0.00 0.00 0.00 78 1010.4
20260506041340 24 300 6.4 8.0 0.00 0.00 0.00 78 1010.3
20260506040837 24 259 4.8 4.8 0.00 0.00 0.00 78 1010.3
20260506040335 24 223 3.2 3.2 0.00 0.00 0.00 79 1010.2
20260506035831 24 6 1.6 1.6 0.00 0.00 0.00 79 1010.3
20260506035329 24 293 11.3 12.9 0.00 0.00 0.00 79 1010.1
20260506034825 24 280 8.0 9.7 0.00 0.00 0.00 79 1010.0
20260506034323 24 317 4.8 4.8 0.00 0.00 0.00 78 1009.7
20260506033820 25 322 6.4 8.0 0.00 0.00 0.00 78 1009.4
20260506033317 25 312 4.8 8.0 0.00 0.00 0.00 78 1009.2
20260506032813 25 80 0.0 1.6 0.00 0.00 0.00 77 1009.0
20260506032310 25 153 4.8 8.0 0.00 0.00 0.00 77 1008.8
20260506031807 25 129 4.8 8.0 0.00 0.00 0.00 77 1008.7
20260506031304 25 125 6.4 8.0 0.00 0.00 0.00 77 1008.5
20260506030802 25 136 8.0 11.3 0.00 0.00 0.00 77 1008.5
20260506030300 25 116 4.8 4.8 0.00 0.00 0.00 77 1008.3
20260506025757 25 90 6.4 9.7 0.00 0.00 0.00 77 1008.2
20260506025253 25 106 8.0 9.7 0.00 0.00 0.00 77 1008.3
20260506024750 25 126 9.7 11.3 0.00 0.00 0.00 77 1008.3
20260506024246 25 131 4.8 8.0 0.00 0.00 0.00 76 1008.3
20260506023742 25 151 4.8 4.8 0.00 0.00 0.00 76 1008.2
20260506023240 25 107 3.2 9.7 0.00 0.00 0.00 75 1008.1
20260506022736 25 127 6.4 8.0 0.00 0.00 0.00 75 1008.1
20260506022235 25 77 3.2 4.8 0.00 0.00 0.00 75 1007.8
20260506021732 25 93 6.4 9.7 0.00 0.00 0.00 75 1007.6
20260506021229 25 142 4.8 4.8 0.00 0.00 0.00 75 1007.6
20260506020726 25 121 3.2 4.8 0.00 0.00 0.00 75 1007.7
20260506020224 25 127 3.2 4.8 0.00 0.00 0.00 74 1007.7
20260506015721 25 110 3.2 4.8 0.00 0.00 0.00 74 1007.5
20260506015219 26 119 4.8 8.0 0.00 0.00 0.00 74 1007.6
20260506014715 26 86 4.8 4.8 0.00 0.00 0.00 73 1007.6
20260506014211 26 115 8.0 9.7 0.00 0.00 0.00 73 1007.4
20260506013709 26 119 3.2 3.2 0.00 0.00 0.00 73 1007.2
20260506013206 26 127 3.2 4.8 0.00 0.00 0.00 72 1007.1
20260506012702 26 134 4.8 8.0 0.00 0.00 0.00 71 1007.2
20260506012159 26 71 0.0 1.6 0.00 0.00 0.00 71 1007.3
20260506011657 26 103 4.8 4.8 0.00 0.00 0.00 70 1007.1
20260506011152 26 126 4.8 4.8 0.00 0.00 0.00 70 1006.9
20260506010651 27 133 3.2 4.8 0.00 0.00 0.00 69 1006.9
20260506010148 27 98 4.8 4.8 0.00 0.00 0.00 68 1006.7
20260506005645 27 99 1.6 1.6 0.00 0.00 0.00 68 1006.7
20260506005142 27 138 4.8 4.8 0.00 0.00 0.00 67 1006.6
20260506004638 27 87 0.0 1.6 0.00 0.00 0.00 67 1006.9
20260506004135 27 121 3.2 3.2 0.00 0.00 0.00 66 1006.9
20260506003632 28 81 1.6 1.6 0.00 0.00 0.00 66 1006.5
20260506003128 28 119 1.6 1.6 0.00 0.00 0.00 65 1006.9
20260506002624 28 79 3.2 3.2 0.00 0.00 0.00 65 1006.9
20260506002120 28 102 0.0 1.6 0.00 0.00 0.00 64 1006.7
20260506001616 28 111 3.2 3.2 0.00 0.00 0.00 63 1006.9
20260506001114 28 108 1.6 3.2 0.00 0.00 0.00 62 1006.7
20260506000611 29 103 6.4 8.0 0.00 0.00 0.00 61 1006.9
20260506000108 29 129 8.0 11.3 0.00 0.00 0.00 60 1007.1
20260505235606 30 49 3.2 3.2 0.00 0.00 0.00 60 1006.9
20260505235103 30 161 4.8 9.7 0.00 0.00 0.00 60 1007.0
20260505234600 30 72 1.6 1.6 0.00 0.00 0.00 61 1006.6
20260505234056 29 173 8.0 9.7 0.00 0.00 0.00 61 1006.5
20260505233554 29 106 4.8 8.0 0.00 0.00 0.00 61 1006.6
20260505233051 30 79 4.8 8.0 0.00 0.00 0.00 61 1006.6
20260505232549 30 77 1.6 3.2 0.00 0.00 0.00 61 1006.7
20260505232046 30 74 4.8 4.8 0.00 0.00 0.00 60 1006.3
20260505231543 30 164 6.4 9.7 0.00 0.00 0.00 59 1006.6
20260505231042 30 91 6.4 9.7 0.00 0.00 0.00 59 1006.7
20260505230539 30 154 8.0 12.9 0.00 0.00 0.00 59 1006.7
20260505230035 30 76 3.2 4.8 0.00 0.00 0.00 58 1006.6
20260505225532 30 239 8.0 11.3 0.00 0.00 0.00 58 1006.6
20260505225028 30 168 4.8 11.3 0.00 0.00 0.00 58 1006.6
20260505224525 30 149 8.0 9.7 0.00 0.00 0.00 58 1006.6
20260505224022 30 134 14.5 16.1 0.00 0.00 0.00 57 1006.7
20260505223520 31 63 9.7 12.9 0.00 0.00 0.00 56 1006.6
20260505223016 31 130 12.9 14.5 0.00 0.00 0.00 55 1006.4
20260505222512 31 105 0.0 1.6 0.00 0.00 0.00 56 1006.3
20260505222008 31 117 4.8 8.0 0.00 0.00 0.00 56 1006.3
20260505221506 31 86 8.0 11.3 0.00 0.00 0.00 55 1006.3
20260505221002 31 132 9.7 12.9 0.00 0.00 0.00 54 1006.3
20260505220459 31 181 1.6 3.2 0.00 0.00 0.00 53 1006.4
20260505215957 32 106 11.3 12.9 0.00 0.00 0.00 52 1006.5
20260505215455 32 153 9.7 11.3 0.00 0.00 0.00 49 1006.5
20260505214952 32 189 3.2 4.8 0.00 0.00 0.00 48 1006.5
20260505214450 32 87 3.2 4.8 0.00 0.00 0.00 48 1006.4
20260505213947 32 210 4.8 4.8 0.00 0.00 0.00 49 1006.5
20260505213445 31 123 1.6 3.2 0.00 0.00 0.00 50 1006.5
20260505212941 32 200 1.6 1.6 0.00 0.00 0.00 50 1006.4
20260505212438 31 254 4.8 4.8 0.00 0.00 0.00 50 1006.2
20260505211934 32 137 11.3 12.9 0.00 0.00 0.00 49 1006.5
20260505211432 32 107 6.4 8.0 0.00 0.00 0.00 50 1006.6
20260505210928 31 117 6.4 8.0 0.00 0.00 0.00 51 1006.6
20260505210425 31 108 9.7 12.9 0.00 0.00 0.00 51 1007.0
20260505205922 31 197 6.4 9.7 0.00 0.00 0.00 51 1007.1
20260505205421 31 70 1.6 4.8 0.00 0.00 0.00 50 1007.2
20260505204917 31 162 8.0 9.7 0.00 0.00 0.00 49 1007.3
20260505204415 31 77 4.8 8.0 0.00 0.00 0.00 51 1007.2
20260505203912 31 178 6.4 8.0 0.00 0.00 0.00 49 1007.3
20260505203408 31 150 9.7 11.3 0.00 0.00 0.00 50 1007.2
20260505202904 31 157 3.2 3.2 0.00 0.00 0.00 50 1007.1
20260505202401 31 129 8.0 11.3 0.00 0.00 0.00 50 1007.2
20260505201857 31 215 4.8 8.0 0.00 0.00 0.00 51 1007.5
20260505201354 31 196 4.8 4.8 0.00 0.00 0.00 51 1007.6
20260505200853 31 37 1.6 1.6 0.00 0.00 0.00 51 1007.7
20260505200349 31 253 8.0 9.7 0.00 0.00 0.00 50 1007.8
20260505195845 31 218 9.7 11.3 0.00 0.00 0.00 51 1007.9
20260505195344 31 258 3.2 3.2 0.00 0.00 0.00 54 1007.9
20260505194839 31 215 11.3 14.5 0.00 0.00 0.00 53 1007.6
20260505194337 31 151 8.0 9.7 0.00 0.00 0.00 53 1007.8
20260505193832 30 181 4.8 9.7 0.00 0.00 0.00 56 1007.9
20260505193330 31 46 1.6 1.6 0.00 0.00 0.00 56 1007.7
20260505192827 31 201 9.7 11.3 0.00 0.00 0.00 55 1007.8
20260505192326 31 158 8.0 12.9 0.00 0.00 0.00 56 1008.0
20260505191823 30 140 3.2 3.2 0.00 0.00 0.00 55 1007.9
20260505191321 30 151 11.3 14.5 0.00 0.00 0.00 56 1007.9
20260505190818 30 186 14.5 17.7 0.00 0.00 0.00 57 1008.1
20260505190313 30 117 12.9 16.1 0.00 0.00 0.00 57 1008.2
20260505185809 30 210 9.7 11.3 0.00 0.00 0.00 56 1008.4
20260505185306 30 176 8.0 12.9 0.00 0.00 0.00 56 1008.2
20260505184802 30 211 8.0 9.7 0.00 0.00 0.00 58 1008.5
20260505184259 30 128 4.8 8.0 0.00 0.00 0.00 57 1008.6
20260505183756 30 164 11.3 14.5 0.00 0.00 0.00 56 1008.6
20260505183253 30 120 9.7 14.5 0.00 0.00 0.00 56 1008.3
20260505182750 29 155 11.3 12.9 0.00 0.00 0.00 57 1008.7
20260505182246 29 200 14.5 17.7 0.00 0.00 0.00 59 1008.6
20260505181743 29 236 6.4 8.0 0.00 0.00 0.00 58 1008.6
20260505181241 29 76 8.0 14.5 0.00 0.00 0.00 61 1008.4
20260505180737 29 231 12.9 17.7 0.00 0.00 0.00 59 1008.7
20260505180233 28 152 14.5 16.1 0.00 0.00 0.00 62 1008.8